Regional Weather Roundup
Issued by NWS Newport/Morehead, NC

Current Version | Previous Version | Graphics & Text | Print | Product List | Glossary Off
Versions: 1 2 3 4 5 6 7 8 9 10 11 12 13 14 15 16 17 18 19 20 21 22 23 24 25 26 27 28 29 30 31 32 33 34 35 36 37 38 39 40 41 42 43 44 45 46 47 48 49 50

000
ASUS42 KMHX 260810
RWRMHX
WEATHER ROUNDUP FOR EASTERN NORTH CAROLINA
NATIONAL WEATHER SERVICE NEWPORT/MOREHEAD CITY NC
300 AM EST WED NOV 26 2014

NOTE: "FAIR" INDICATES FEW OR NO CLOUDS BELOW 12,000 FEET
WITH NO SIGNIFICANT WEATHER AND/OR OBSTRUCTIONS TO VISIBILITY

NCZ015>017-031-032-045>047-102-103-260900-
NORTH COAST

CITY           SKY/WX    TMP DP  RH WIND       PRES   REMARKS
EDENTON        DRIZZLE   55  55 100 NE13      29.92F
ELIZABETH CITY LGT RAIN  58  54  86 NE13      29.96F
KITTY HAWK     LGT RAIN  60  60  99 NE3       29.93F
MANTEO         RAIN      59  59  99 N9G20     29.94F

$$

NCZ045>047-081-094-103-104-260900-
CENTRAL COAST

CITY           SKY/WX    TMP DP  RH WIND       PRES   REMARKS
FRISCO         LGT RAIN  63  63 100 E7        29.91F
SWANQUARTER      N/A     59 N/A N/A NE7       29.85F

$$

NCZ095-097-098-100-101-260900-
SOUTHERN COAST

CITY           SKY/WX    TMP DP  RH WIND       PRES   REMARKS
BEAUFORT       CLOUDY    67  67 100 N3        29.85R
CEDAR ISLAND     N/A     61 N/A N/A E13G22    29.88F
JACKSONVILLE   CLOUDY    63  61  93 E6        29.83F
PINEY ISLAND   LGT RAIN  60  57  89 NE10      29.85F FOG
WILMINGTON     CLOUDY    63  63 100 NE7       29.81F FOG


$$

NCZ011>013-027>030-043-044-078>080-089-090>093-098-260900-
COASTAL PLAIN

CITY           SKY/WX    TMP DP  RH WIND       PRES   REMARKS
AHOSKIE        HVY RAIN  51  49  96 N10       29.95F
CLINTON        CLOUDY    55  55 100 NE6       29.85F
ELIZABETHTOWN  LGT RAIN  57  57 100 CALM      29.83F
GOLDSBORO      LGT RAIN  54  54 100 NE10      29.85F
GREENVILLE     RAIN      54  54 100 NE6       29.93F
HAVELOCK       CLOUDY    60  58  92 NE8       29.88F
KENANSVILLE    CLOUDY    56  55  98 CALM      29.86F
KINSTON        DRIZZLE   57  56  99 NE10G16   29.89F
NEW BERN       CLOUDY    61  58  90 NE7       29.89F
RICHLANDS      CLOUDY    61  57  88 NE8       29.85F
ROCKY MOUNT    LGT RAIN  51  50  96 N10       29.92F FOG
WASHINGTON     CLOUDY    56  55  97 NE8       29.90F
WHITEVILLE     CLOUDY    59  57  94 NE7       29.79F FOG

$$

AMZ130-135-150-152-154-156-158-170-250-252-270-ANZ085-086-088-633-658-670-260900-
MARINE OBSERVATIONS

STATION/POSITION TIME  TEMP    WIND        PRES    WAVE   SWELL
                       AIR SEA DIR/SP/G            HT/PER HT/PER
                 (UTC) (F)     (DEG/KT/KT) (MB)    (FT/S) (FT/S)
CHESAPEAKE LIGHT 0700   53      50/ 27/ 28 1016.2
64 E VA BEACH    0800   60 64   60/ 23/ 27 1014.7    6/ 8   5/ 8
DUCK             0800   59 58   50/ 19/ 22 1013.1
2 E DUCK         0800      58                N/A     4/ 8   2/11
10 NE DUCK       0800      59                N/A     4/10   2/11
OREGON INLET     0800   62 57   70/ 11/ 18 1013.1
13E OREGON INLT  0800      62                N/A     4/ 8   2/11
HATTERAS CG      0800   64 62   90/  7/ 10 1013.1
DIAMOND BUOY     0800   69     110/  6/  6 1013.2    5/ 9   5/ 9
17 S OCRACOKE    NOT AVBL
CAPE LOOKOUT     0700   67     130/ 18/ 19 1011.9
BEAUFORT LAB     0800   66 59  120/  8/ 11 1009.6
30 SE NEW RIVER  0800   71 68  140/ 23/ 29 1008.7    6/ 9   3/ 9
5 SE WRIGHTSVLE  0700   61 59   80/ 10/ 14 1009.6
225 S CAPE HAT   0729   75 73  180/ 19/ 21 1015.5    7/ 9   3/ 9
41 SE CHARLESTON 0800   75 75  150/ 29/ 39 1006.6    9/ 6

$$



USA.gov is the U.S. government's official web portal to all federal, state and local government web resources and services.